When you browse on this site, cookies collect data to enhance your experience and personalize the content and advertising you see.
Visit our Privacy Policy to learn more. By continuing to use the site, you agree to this use of cookies and data.
  • Em Portugal
  • Lista de países
  • Para 7 dias
  • Temperatura da água
  • Mapas de satélite
  • Mapa do tempo
  • Widgets de tempo
  • user-avatar
    Iniciar Sessão

    Previsão horária em Podrabalina

    Hoje, 25 Maio, Sábado

    Tempo Temperatura Precipitação Vento Pressão Humidade
    00:00 +11°C° 0 mm 1 m/s 743 mmHg 84%
    01:00 +11°C° 0 mm 1 m/s 743 mmHg 83%
    02:00 +11°C° 0 mm 1 m/s 742 mmHg 84%
    03:00 +11°C° 0 mm 1 m/s 742 mmHg 84%
    04:00 +11°C° 0 mm 1 m/s 742 mmHg 84%
    05:00 +11°C° 0 mm 1 m/s 742 mmHg 83%
    06:00 +13°C° 0 mm 2 m/s 742 mmHg 80%
    07:00 +14°C° 0 mm 3 m/s 742 mmHg 77%
    08:00 +17°C° 0 mm 4 m/s 742 mmHg 73%
    09:00 +18°C° 0 mm 4 m/s 742 mmHg 68%
    10:00 +19°C° 0 mm 4 m/s 742 mmHg 64%
    11:00 +20°C° 0 mm 5 m/s 742 mmHg 60%
    12:00 +19°C° 0.3 mm 4 m/s 742 mmHg 65%
    13:00 +18°C° 0.3 mm 4 m/s 742 mmHg 71%
    14:00 +18°C° 0.3 mm 4 m/s 742 mmHg 77%
    15:00 +16°C° 0.1 mm 5 m/s 742 mmHg 75%
    16:00 +16°C° 0.1 mm 5 m/s 742 mmHg 73%
    17:00 +16°C° 0.1 mm 5 m/s 742 mmHg 72%
    18:00 +14°C° 0 mm 4 m/s 742 mmHg 75%
    19:00 +13°C° 0 mm 4 m/s 742 mmHg 79%
    20:00 +12°C° 0 mm 3 m/s 742 mmHg 83%
    21:00 +10°C° 0 mm 3 m/s 743 mmHg 87%
    22:00 +9°C° 0 mm 2 m/s 743 mmHg 91%
    23:00 +8°C° 0 mm 2 m/s 743 mmHg 95%

    Amanhã, 26 Maio, Domingo

    Tempo Temperatura Precipitação Vento Pressão Humidade
    00:00 +7°C° 0 mm 2 m/s 743 mmHg 95%
    01:00 +7°C° 0 mm 2 m/s 743 mmHg 96%
    02:00 +6°C° 0 mm 2 m/s 743 mmHg 96%
    03:00 +6°C° 0 mm 2 m/s 743 mmHg 97%
    04:00 +6°C° 0 mm 2 m/s 743 mmHg 97%
    05:00 +6°C° 0 mm 2 m/s 743 mmHg 97%
    06:00 +8°C° 0 mm 3 m/s 743 mmHg 91%
    07:00 +10°C° 0 mm 4 m/s 743 mmHg 85%
    08:00 +10°C° 0 mm 5 m/s 743 mmHg 78%
    09:00 +12°C° 0 mm 5 m/s 743 mmHg 78%
    10:00 +12°C° 0 mm 5 m/s 743 mmHg 78%
    11:00 +12°C° 0 mm 5 m/s 742 mmHg 79%
    12:00 +13°C° 0 mm 5 m/s 742 mmHg 77%
    13:00 +13°C° 0 mm 5 m/s 742 mmHg 75%
    14:00 +13°C° 0 mm 5 m/s 742 mmHg 74%
    15:00 +14°C° 0 mm 5 m/s 742 mmHg 73%
    16:00 +14°C° 0 mm 5 m/s 742 mmHg 72%
    17:00 +14°C° 0 mm 5 m/s 742 mmHg 71%
    18:00 +14°C° 0 mm 5 m/s 742 mmHg 75%
    19:00 +13°C° 0 mm 4 m/s 741 mmHg 78%
    20:00 +12°C° 0 mm 3 m/s 741 mmHg 82%
    21:00 +12°C° 0 mm 3 m/s 741 mmHg 85%
    22:00 +11°C° 0 mm 3 m/s 741 mmHg 88%
    23:00 +10°C° 0 mm 3 m/s 741 mmHg 91%

    Depois de amanhã, 27 Maio, Segunda-feira

    Tempo Temperatura Precipitação Vento Pressão Humidade
    00:00 +11°C° 0 mm 4 m/s 741 mmHg 88%
    01:00 +12°C° 0 mm 4 m/s 741 mmHg 85%
    02:00 +12°C° 0 mm 4 m/s 741 mmHg 82%
    03:00 +12°C° 0 mm 4 m/s 741 mmHg 85%
    04:00 +12°C° 0 mm 4 m/s 741 mmHg 88%
    05:00 +12°C° 0 mm 3 m/s 741 mmHg 90%
    06:00 +13°C° 0 mm 4 m/s 741 mmHg 87%
    07:00 +14°C° 0 mm 4 m/s 741 mmHg 83%
    08:00 +15°C° 0 mm 5 m/s 741 mmHg 80%
    09:00 +17°C° 0 mm 6 m/s 740 mmHg 77%
    10:00 +18°C° 0 mm 7 m/s 740 mmHg 73%
    11:00 +20°C° 0 mm 8 m/s 740 mmHg 70%
    12:00 +20°C° 0.4 mm 7 m/s 740 mmHg 72%
    13:00 +20°C° 0.4 mm 7 m/s 740 mmHg 74%
    14:00 +20°C° 0.4 mm 6 m/s 740 mmHg 76%
    15:00 +20°C° 1 mm 6 m/s 740 mmHg 79%
    16:00 +20°C° 1 mm 6 m/s 740 mmHg 82%
    17:00 +19°C° 1 mm 5 m/s 740 mmHg 85%
    18:00 +18°C° 0.6 mm 4 m/s 740 mmHg 88%
    19:00 +18°C° 0.6 mm 3 m/s 741 mmHg 91%
    20:00 +17°C° 0.6 mm 2 m/s 741 mmHg 94%
    21:00 +16°C° 0 mm 2 m/s 741 mmHg 95%
    22:00 +15°C° 0 mm 2 m/s 742 mmHg 96%
    23:00 +14°C° 0 mm 2 m/s 742 mmHg 97%

    28 Maio, Terça-feira

    Tempo Temperatura Precipitação Vento Pressão Humidade
    00:00 +14°C° 0 mm 2 m/s 742 mmHg 96%
    01:00 +13°C° 0 mm 2 m/s 742 mmHg 95%
    02:00 +13°C° 0 mm 1 m/s 742 mmHg 94%
    03:00 +13°C° 0 mm 1 m/s 742 mmHg 94%
    04:00 +13°C° 0 mm 2 m/s 742 mmHg 93%
    05:00 +13°C° 0 mm 2 m/s 742 mmHg 92%
    06:00 +13°C° 0.1 mm 2 m/s 742 mmHg 92%
    07:00 +14°C° 0.1 mm 2 m/s 742 mmHg 91%
    08:00 +13°C° 0.1 mm 3 m/s 742 mmHg 90%
    09:00 +14°C° 1.5 mm 3 m/s 742 mmHg 92%
    10:00 +14°C° 1.5 mm 3 m/s 741 mmHg 94%
    11:00 +14°C° 1.5 mm 3 m/s 741 mmHg 96%
    12:00 +14°C° 1.4 mm 3 m/s 741 mmHg 96%
    13:00 +16°C° 1.4 mm 3 m/s 740 mmHg 96%
    14:00 +16°C° 1.4 mm 3 m/s 740 mmHg 97%
    15:00 +17°C° 0.1 mm 3 m/s 739 mmHg 95%
    16:00 +17°C° 0.1 mm 3 m/s 739 mmHg 93%
    17:00 +18°C° 0.1 mm 3 m/s 739 mmHg 91%
    18:00 +17°C° 0 mm 3 m/s 739 mmHg 93%
    19:00 +17°C° 0 mm 3 m/s 739 mmHg 94%
    20:00 +16°C° 0 mm 3 m/s 738 mmHg 96%
    21:00 +16°C° 0.1 mm 3 m/s 738 mmHg 96%
    22:00 +14°C° 0.1 mm 3 m/s 738 mmHg 97%
    23:00 +14°C° 0.1 mm 3 m/s 738 mmHg 98%

    29 Maio, Quarta-feira

    Tempo Temperatura Precipitação Vento Pressão Humidade
    00:00 +14°C° 0.3 mm 3 m/s 738 mmHg 98%
    01:00 +15°C° 0.3 mm 2 m/s 738 mmHg 98%
    02:00 +15°C° 0.3 mm 2 m/s 738 mmHg 98%
    03:00 +15°C° 0.1 mm 2 m/s 738 mmHg 98%
    04:00 +15°C° 0.1 mm 2 m/s 738 mmHg 98%
    05:00 +15°C° 0.1 mm 2 m/s 738 mmHg 98%
    06:00 +15°C° 0 mm 2 m/s 738 mmHg 97%
    07:00 +14°C° 0 mm 3 m/s 738 mmHg 97%
    08:00 +16°C° 0 mm 3 m/s 738 mmHg 96%
    09:00 +15°C° 0.7 mm 4 m/s 739 mmHg 95%
    10:00 +15°C° 0.7 mm 4 m/s 739 mmHg 93%
    11:00 +15°C° 0.7 mm 4 m/s 739 mmHg 92%
    12:00 +14°C° 0.6 mm 5 m/s 740 mmHg 92%
    13:00 +14°C° 0.6 mm 6 m/s 740 mmHg 93%
    14:00 +13°C° 0.6 mm 6 m/s 741 mmHg 93%
    15:00 +11°C° 0.6 mm 6 m/s 741 mmHg 94%
    16:00 +10°C° 0.6 mm 7 m/s 741 mmHg 94%
    17:00 +9°C° 0.6 mm 7 m/s 742 mmHg 95%
    18:00 +9°C° 0.7 mm 7 m/s 742 mmHg 94%
    19:00 +8°C° 0.7 mm 7 m/s 743 mmHg 94%
    20:00 +8°C° 0.7 mm 7 m/s 744 mmHg 94%
    21:00 +7°C° 0.2 mm 6 m/s 744 mmHg 93%
    22:00 +7°C° 0.2 mm 5 m/s 745 mmHg 91%
    23:00 +6°C° 0.2 mm 5 m/s 746 mmHg 90%

    30 Maio, Quinta-feira

    Tempo Temperatura Precipitação Vento Pressão Humidade
    00:00 +6°C° 0 mm 4 m/s 746 mmHg 90%
    01:00 +5°C° 0 mm 4 m/s 746 mmHg 89%
    02:00 +5°C° 0 mm 4 m/s 747 mmHg 89%
    03:00 +5°C° 0 mm 3 m/s 747 mmHg 89%
    04:00 +4°C° 0 mm 3 m/s 748 mmHg 90%
    05:00 +4°C° 0 mm 3 m/s 748 mmHg 90%
    06:00 +5°C° 0 mm 3 m/s 749 mmHg 84%
    07:00 +8°C° 0 mm 3 m/s 749 mmHg 78%
    08:00 +10°C° 0 mm 3 m/s 750 mmHg 71%
    09:00 +12°C° 0 mm 3 m/s 750 mmHg 64%
    10:00 +13°C° 0 mm 3 m/s 750 mmHg 57%
    11:00 +16°C° 0 mm 2 m/s 751 mmHg 50%
    12:00 +16°C° 0 mm 2 m/s 751 mmHg 50%
    13:00 +16°C° 0 mm 2 m/s 751 mmHg 50%
    14:00 +17°C° 0 mm 2 m/s 751 mmHg 50%
    15:00 +17°C° 0 mm 2 m/s 751 mmHg 50%
    16:00 +17°C° 0 mm 2 m/s 751 mmHg 50%
    17:00 +17°C° 0 mm 2 m/s 750 mmHg 51%
    18:00 +16°C° 0 mm 1 m/s 750 mmHg 57%
    19:00 +15°C° 0 mm 1 m/s 750 mmHg 63%
    20:00 +13°C° 0 mm 1 m/s 750 mmHg 70%
    21:00 +13°C° 0 mm 1 m/s 750 mmHg 70%
    22:00 +12°C° 0 mm 1 m/s 750 mmHg 71%
    23:00 +11°C° 0 mm 1 m/s 750 mmHg 71%
    Mostrar mais